Time,TemperatureF,DewpointF,PressureIn,WindDirection,WindDirectionDegrees,WindSpeedMPH,WindSpeedGustMPH,Humidity,HourlyPrecipIn,Conditions,Clouds,dailyrainin,SoftwareType,DateUTC
2013-05-04 00:01:00,50.0,25.0,30.07,West,277,0.0,0.0,38,0.00,,,0.00,,2013-05-04 06:01:00,
2013-05-04 00:11:00,50.0,24.0,30.07,West,277,0.0,0.0,36,0.00,,,0.00,,2013-05-04 06:11:00,
2013-05-04 00:21:00,50.0,24.0,30.07,West,277,0.0,0.0,36,0.00,,,0.00,,2013-05-04 06:21:00,
2013-05-04 00:32:00,49.0,25.0,30.07,West,277,0.0,0.0,39,0.00,,,0.00,,2013-05-04 06:32:00,
2013-05-04 00:42:00,49.0,25.0,30.07,West,277,0.0,0.0,39,0.00,,,0.00,,2013-05-04 06:42:00,
2013-05-04 00:52:00,48.0,25.0,30.06,West,277,0.0,0.0,40,0.00,,,0.00,,2013-05-04 06:52:00,
2013-05-04 01:01:00,49.0,24.0,30.06,NNW,342,0.0,1.0,37,0.00,,,0.00,,2013-05-04 07:01:00,
2013-05-04 01:11:00,49.0,24.0,30.06,NNW,342,0.0,1.0,37,0.00,,,0.00,,2013-05-04 07:11:00,
2013-05-04 01:21:00,49.0,24.0,30.05,NW,318,0.0,1.0,37,0.00,,,0.00,,2013-05-04 07:21:00,
2013-05-04 01:32:00,47.0,25.0,30.05,NW,318,0.0,0.0,42,0.00,,,0.00,,2013-05-04 07:32:00,
2013-05-04 01:42:00,47.0,25.0,30.05,NW,318,0.0,0.0,42,0.00,,,0.00,,2013-05-04 07:42:00,
2013-05-04 01:52:00,46.0,25.0,30.04,NW,318,0.0,0.0,44,0.00,,,0.00,,2013-05-04 07:52:00,
2013-05-04 02:01:00,45.0,24.0,30.04,NW,325,0.0,1.0,44,0.00,,,0.00,,2013-05-04 08:01:00,
2013-05-04 02:11:00,45.0,24.0,30.04,NW,325,0.0,1.0,44,0.00,,,0.00,,2013-05-04 08:11:00,
2013-05-04 02:21:00,46.0,23.0,30.04,NW,308,0.0,0.0,40,0.00,,,0.00,,2013-05-04 08:21:00,
2013-05-04 02:31:00,46.0,23.0,30.03,NW,308,0.0,0.0,40,0.00,,,0.00,,2013-05-04 08:31:00,
2013-05-04 02:41:00,46.0,23.0,30.03,NW,308,0.0,0.0,40,0.00,,,0.00,,2013-05-04 08:41:00,
2013-05-04 02:52:00,45.0,22.0,30.03,North,357,1.0,3.0,39,0.00,,,0.00,,2013-05-04 08:52:00,
2013-05-04 03:02:00,46.0,21.0,30.02,NNW,336,1.0,4.0,37,0.00,,,0.00,,2013-05-04 09:02:00,
2013-05-04 03:11:00,46.0,21.0,30.02,NNW,336,1.0,4.0,37,0.00,,,0.00,,2013-05-04 09:11:00,
2013-05-04 03:21:00,47.0,20.0,30.02,WNW,283,0.0,2.0,34,0.00,,,0.00,,2013-05-04 09:21:00,
2013-05-04 03:32:00,47.0,20.0,30.02,North,357,0.0,2.0,34,0.00,,,0.00,,2013-05-04 09:32:00,
2013-05-04 03:42:00,47.0,20.0,30.02,North,357,0.0,2.0,34,0.00,,,0.00,,2013-05-04 09:42:00,
2013-05-04 03:53:00,46.0,19.0,30.02,NW,321,0.0,2.0,34,0.00,,,0.00,,2013-05-04 09:53:00,
2013-05-04 04:02:00,46.0,19.0,30.02,NW,321,0.0,0.0,34,0.00,,,0.00,,2013-05-04 10:02:00,
2013-05-04 04:12:00,46.0,19.0,30.02,NW,321,0.0,0.0,34,0.00,,,0.00,,2013-05-04 10:12:00,
2013-05-04 04:22:00,45.0,18.0,30.02,NW,321,0.0,0.0,34,0.00,,,0.00,,2013-05-04 10:22:00,
2013-05-04 04:33:00,45.0,19.0,30.01,NW,321,0.0,0.0,35,0.00,,,0.00,,2013-05-04 10:33:00,
2013-05-04 04:42:00,45.0,19.0,30.01,NW,321,0.0,0.0,35,0.00,,,0.00,,2013-05-04 10:42:00,
2013-05-04 04:53:00,45.0,20.0,30.01,NW,321,0.0,0.0,36,0.00,,,0.00,,2013-05-04 10:53:00,
2013-05-04 05:02:00,44.0,22.0,30.01,NW,321,0.0,0.0,41,0.00,,,0.00,,2013-05-04 11:02:00,
2013-05-04 05:11:00,44.0,22.0,30.01,NW,321,0.0,0.0,41,0.00,,,0.00,,2013-05-04 11:11:00,
2013-05-04 05:21:00,43.0,23.0,30.01,NW,321,0.0,0.0,45,0.00,,,0.00,,2013-05-04 11:21:00,
2013-05-04 05:32:00,42.0,23.0,30.00,NW,321,0.0,0.0,47,0.00,,,0.00,,2013-05-04 11:32:00,
2013-05-04 05:42:00,42.0,23.0,30.00,NW,321,0.0,0.0,47,0.00,,,0.00,,2013-05-04 11:42:00,
2013-05-04 06:04:00,41.0,23.0,30.00,NW,321,0.0,0.0,49,0.00,,,0.00,,2013-05-04 12:04:00,
2013-05-04 06:13:00,41.0,23.0,30.00,NW,321,0.0,0.0,49,0.00,,,0.00,,2013-05-04 12:13:00,
2013-05-04 06:27:00,41.0,19.0,30.00,NW,321,0.0,0.0,41,0.00,,,0.00,,2013-05-04 12:27:00,
2013-05-04 06:36:00,43.0,18.0,30.01,NW,321,0.0,0.0,36,0.00,,,0.00,,2013-05-04 12:36:00,
2013-05-04 06:42:00,43.0,18.0,30.01,NW,321,0.0,0.0,36,0.00,,,0.00,,2013-05-04 12:42:00,
2013-05-04 06:52:00,44.0,17.0,30.01,NW,321,0.0,0.0,34,0.00,,,0.00,,2013-05-04 12:52:00,
2013-05-04 07:01:00,45.0,16.0,30.01,NNE,13,2.0,4.0,31,0.00,,,0.00,,2013-05-04 13:01:00,
2013-05-04 07:11:00,45.0,16.0,30.01,NNE,13,2.0,4.0,31,0.00,,,0.00,,2013-05-04 13:11:00,
2013-05-04 07:21:00,46.0,16.0,30.01,North,3,1.0,5.0,29,0.00,,,0.00,,2013-05-04 13:21:00,
2013-05-04 07:41:00,48.0,15.0,30.01,NNW,329,1.0,3.0,26,0.00,,,0.00,,2013-05-04 13:41:00,
2013-05-04 07:52:00,49.0,15.0,30.02,NNW,332,0.0,2.0,25,0.00,,,0.00,,2013-05-04 13:52:00,
2013-05-04 08:02:00,50.0,15.0,30.02,NNW,336,1.0,4.0,24,0.00,,,0.00,,2013-05-04 14:02:00,
2013-05-04 08:11:00,50.0,15.0,30.02,NNW,336,1.0,4.0,24,0.00,,,0.00,,2013-05-04 14:11:00,
2013-05-04 08:21:00,51.0,15.0,30.03,NNW,328,1.0,5.0,23,0.00,,,0.00,,2013-05-04 14:21:00,
2013-05-04 08:32:00,52.0,15.0,30.03,NE,39,2.0,5.0,23,0.00,,,0.00,,2013-05-04 14:32:00,
2013-05-04 08:42:00,52.0,15.0,30.03,NE,39,2.0,5.0,23,0.00,,,0.00,,2013-05-04 14:42:00,
2013-05-04 08:52:00,53.0,15.0,30.03,NNW,333,2.0,6.0,22,0.00,,,0.00,,2013-05-04 14:52:00,
2013-05-04 09:02:00,56.0,16.0,30.03,North,11,5.0,8.0,20,0.00,,,0.00,,2013-05-04 15:02:00,
2013-05-04 09:11:00,56.0,16.0,30.03,North,11,5.0,8.0,20,0.00,,,0.00,,2013-05-04 15:11:00,
2013-05-04 09:22:00,58.0,17.0,30.03,North,0,2.0,6.0,20,0.00,,,0.00,,2013-05-04 15:22:00,
2013-05-04 09:33:00,59.0,16.0,30.03,NW,325,2.0,5.0,18,0.00,,,0.00,,2013-05-04 15:33:00,
2013-05-04 09:43:00,59.0,16.0,30.03,NW,325,2.0,5.0,18,0.00,,,0.00,,2013-05-04 15:43:00,
2013-05-04 09:53:00,61.0,16.0,30.03,SW,225,1.0,5.0,17,0.00,,,0.00,,2013-05-04 15:53:00,
2013-05-04 10:03:00,62.0,15.0,30.03,North,6,0.0,3.0,16,0.00,,,0.00,,2013-05-04 16:03:00,
2013-05-04 10:12:00,62.0,15.0,30.03,North,6,0.0,3.0,16,0.00,,,0.00,,2013-05-04 16:12:00,
2013-05-04 10:22:00,64.0,15.0,30.03,North,3,0.0,0.0,15,0.00,,,0.00,,2013-05-04 16:22:00,
2013-05-04 10:33:00,67.0,16.0,30.03,North,3,0.0,0.0,14,0.00,,,0.00,,2013-05-04 16:33:00,
2013-05-04 10:42:00,67.0,16.0,30.03,North,3,0.0,0.0,14,0.00,,,0.00,,2013-05-04 16:42:00,
2013-05-04 10:52:00,70.0,19.0,30.03,WSW,242,3.0,9.0,14,0.00,,,0.00,,2013-05-04 16:52:00,
2013-05-04 11:02:00,70.0,15.0,30.02,South,180,5.0,11.0,12,0.00,,,0.00,,2013-05-04 17:02:00,
2013-05-04 11:12:00,70.0,15.0,30.02,South,180,5.0,11.0,12,0.00,,,0.00,,2013-05-04 17:12:00,
2013-05-04 11:22:00,70.0,15.0,30.02,South,170,8.0,12.0,12,0.00,,,0.00,,2013-05-04 17:22:00,
2013-05-04 11:32:00,72.0,18.0,30.02,South,180,4.0,10.0,13,0.00,,,0.00,,2013-05-04 17:32:00,
2013-05-04 11:42:00,72.0,18.0,30.02,South,180,4.0,10.0,13,0.00,,,0.00,,2013-05-04 17:42:00,
2013-05-04 11:52:00,72.0,17.0,30.02,WSW,243,8.0,11.0,12,0.00,,,0.00,,2013-05-04 17:52:00,
2013-05-04 12:01:00,72.0,17.0,30.02,SW,235,8.0,12.0,12,0.00,,,0.00,,2013-05-04 18:01:00,
2013-05-04 12:12:00,72.0,17.0,30.02,SW,235,8.0,12.0,12,0.00,,,0.00,,2013-05-04 18:12:00,
2013-05-04 12:21:00,72.0,17.0,30.01,South,170,4.0,11.0,12,0.00,,,0.00,,2013-05-04 18:21:00,
2013-05-04 12:32:00,74.0,18.0,30.01,SW,225,5.0,10.0,12,0.00,,,0.00,,2013-05-04 18:32:00,
2013-05-04 12:42:00,74.0,18.0,30.01,SW,225,5.0,10.0,12,0.00,,,0.00,,2013-05-04 18:42:00,
2013-05-04 12:52:00,74.0,16.0,30.00,SW,232,6.0,10.0,11,0.00,,,0.00,,2013-05-04 18:52:00,
2013-05-04 13:01:00,75.0,17.0,30.00,West,264,2.0,11.0,11,0.00,,,0.00,,2013-05-04 19:01:00,
2013-05-04 13:11:00,75.0,17.0,30.00,West,264,2.0,11.0,11,0.00,,,0.00,,2013-05-04 19:11:00,
2013-05-04 13:21:00,76.0,13.0,29.99,WSW,240,8.0,11.0,9,0.00,,,0.00,,2013-05-04 19:21:00,
2013-05-04 13:32:00,77.0,14.0,29.98,SSW,205,4.0,11.0,9,0.00,,,0.00,,2013-05-04 19:32:00,
2013-05-04 13:42:00,77.0,14.0,29.98,SSW,205,4.0,11.0,9,0.00,,,0.00,,2013-05-04 19:42:00,
2013-05-04 13:52:00,77.0,14.0,29.98,SSW,208,8.0,14.0,9,0.00,,,0.00,,2013-05-04 19:52:00,
2013-05-04 14:02:00,78.0,15.0,29.97,SE,142,9.0,12.0,9,0.00,,,0.00,,2013-05-04 20:02:00,
2013-05-04 14:11:00,78.0,15.0,29.97,SE,142,9.0,12.0,9,0.00,,,0.00,,2013-05-04 20:11:00,
2013-05-04 14:22:00,79.0,13.0,29.97,South,188,2.0,12.0,8,0.00,,,0.00,,2013-05-04 20:22:00,
2013-05-04 14:32:00,79.0,13.0,29.96,South,170,4.0,10.0,8,0.00,,,0.00,,2013-05-04 20:32:00,
2013-05-04 14:42:00,79.0,13.0,29.96,South,170,4.0,10.0,8,0.00,,,0.00,,2013-05-04 20:42:00,
2013-05-04 14:51:00,79.0,13.0,29.96,ENE,66,7.0,13.0,8,0.00,,,0.00,,2013-05-04 20:51:00,
2013-05-04 15:02:00,79.0,13.0,29.96,South,170,5.0,12.0,8,0.00,,,0.00,,2013-05-04 21:02:00,
2013-05-04 15:11:00,79.0,13.0,29.96,South,170,5.0,12.0,8,0.00,,,0.00,,2013-05-04 21:11:00,
2013-05-04 15:22:00,79.0,15.0,29.95,ESE,115,6.0,13.0,9,0.00,,,0.00,,2013-05-04 21:22:00,
2013-05-04 15:33:00,81.0,14.0,29.94,ESE,110,7.0,12.0,8,0.00,,,0.00,,2013-05-04 21:33:00,
2013-05-04 15:43:00,81.0,14.0,29.94,ESE,110,7.0,12.0,8,0.00,,,0.00,,2013-05-04 21:43:00,
2013-05-04 15:52:00,82.0,12.0,29.93,South,172,5.0,11.0,7,0.00,,,0.00,,2013-05-04 21:52:00,
2013-05-04 16:03:00,81.0,14.0,29.93,SSW,211,4.0,11.0,8,0.00,,,0.00,,2013-05-04 22:03:00,
2013-05-04 16:12:00,81.0,14.0,29.93,SSW,211,4.0,11.0,8,0.00,,,0.00,,2013-05-04 22:12:00,
2013-05-04 16:22:00,82.0,15.0,29.92,SE,127,3.0,8.0,8,0.00,,,0.00,,2013-05-04 22:22:00,
2013-05-04 16:33:00,82.0,12.0,29.91,ENE,60,6.0,9.0,7,0.00,,,0.00,,2013-05-04 22:33:00,
2013-05-04 16:42:00,82.0,12.0,29.91,ENE,60,6.0,9.0,7,0.00,,,0.00,,2013-05-04 22:42:00,
2013-05-04 16:52:00,82.0,12.0,29.91,SSE,165,5.0,11.0,7,0.00,,,0.00,,2013-05-04 22:52:00,
2013-05-04 17:02:00,82.0,15.0,29.91,South,184,5.0,12.0,8,0.00,,,0.00,,2013-05-04 23:02:00,
2013-05-04 17:12:00,82.0,15.0,29.91,South,184,5.0,12.0,8,0.00,,,0.00,,2013-05-04 23:12:00,
2013-05-04 17:22:00,82.0,12.0,29.91,SSE,162,6.0,10.0,7,0.00,,,0.00,,2013-05-04 23:22:00,
2013-05-04 17:32:00,82.0,12.0,29.91,ESE,120,3.0,8.0,7,0.00,,,0.00,,2013-05-04 23:32:00,
2013-05-04 17:42:00,82.0,12.0,29.91,ESE,120,3.0,8.0,7,0.00,,,0.00,,2013-05-04 23:42:00,
2013-05-04 17:52:00,83.0,13.0,29.91,NE,49,3.0,11.0,7,0.00,,,0.00,,2013-05-04 23:52:00,
2013-05-04 18:01:00,82.0,12.0,29.91,South,173,0.0,2.0,7,0.00,,,0.00,,2013-05-05 00:01:00,
2013-05-04 18:11:00,82.0,12.0,29.91,South,173,0.0,2.0,7,0.00,,,0.00,,2013-05-05 00:11:00,
2013-05-04 18:21:00,81.0,11.0,29.91,ESE,122,2.0,5.0,7,0.00,,,0.00,,2013-05-05 00:21:00,
2013-05-04 18:31:00,81.0,11.0,29.91,SSW,208,2.0,8.0,7,0.00,,,0.00,,2013-05-05 00:31:00,
2013-05-04 18:42:00,81.0,11.0,29.91,SSW,208,2.0,8.0,7,0.00,,,0.00,,2013-05-05 00:42:00,
2013-05-04 18:52:00,81.0,11.0,29.91,WSW,242,4.0,5.0,7,0.00,,,0.00,,2013-05-05 00:52:00,
2013-05-04 19:01:00,81.0,11.0,29.90,SE,132,2.0,7.0,7,0.00,,,0.00,,2013-05-05 01:01:00,
2013-05-04 19:11:00,81.0,11.0,29.90,South,169,3.0,5.0,7,0.00,,,0.00,,2013-05-05 01:11:00,
2013-05-04 19:21:00,81.0,11.0,29.90,South,169,3.0,5.0,7,0.00,,,0.00,,2013-05-05 01:21:00,
2013-05-04 19:32:00,80.0,10.0,29.91,South,170,3.0,5.0,7,0.00,,,0.00,,2013-05-05 01:32:00,
2013-05-04 19:42:00,80.0,10.0,29.91,South,170,3.0,5.0,7,0.00,,,0.00,,2013-05-05 01:42:00,
2013-05-04 19:52:00,80.0,13.0,29.91,SSE,148,3.0,5.0,8,0.00,,,0.00,,2013-05-05 01:52:00,
2013-05-04 20:02:00,79.0,13.0,29.91,South,173,4.0,6.0,8,0.00,,,0.00,,2013-05-05 02:02:00,
2013-05-04 20:11:00,79.0,13.0,29.91,South,173,4.0,6.0,8,0.00,,,0.00,,2013-05-05 02:11:00,
2013-05-04 20:21:00,78.0,15.0,29.91,South,186,4.0,6.0,9,0.00,,,0.00,,2013-05-05 02:21:00,
2013-05-04 20:31:00,77.0,16.0,29.92,South,188,3.0,7.0,10,0.00,,,0.00,,2013-05-05 02:31:00,
2013-05-04 20:42:00,77.0,16.0,29.92,South,188,3.0,7.0,10,0.00,,,0.00,,2013-05-05 02:42:00,
2013-05-04 20:52:00,75.0,19.0,29.93,SSW,194,4.0,6.0,12,0.00,,,0.00,,2013-05-05 02:52:00,
2013-05-04 21:01:00,75.0,17.0,29.94,SSE,149,5.0,9.0,11,0.00,,,0.00,,2013-05-05 03:01:00,
2013-05-04 21:11:00,75.0,17.0,29.94,South,184,3.0,7.0,11,0.00,,,0.00,,2013-05-05 03:11:00,
2013-05-04 21:21:00,75.0,17.0,29.94,South,184,3.0,7.0,11,0.00,,,0.00,,2013-05-05 03:21:00,
2013-05-04 21:33:00,74.0,16.0,29.95,SSW,193,4.0,7.0,11,0.00,,,0.00,,2013-05-05 03:33:00,
2013-05-04 21:42:00,74.0,16.0,29.95,SSW,193,4.0,7.0,11,0.00,,,0.00,,2013-05-05 03:42:00,
2013-05-04 21:53:00,74.0,18.0,29.96,WSW,245,2.0,5.0,12,0.00,,,0.00,,2013-05-05 03:53:00,
2013-05-04 22:02:00,73.0,19.0,29.97,SSW,200,4.0,7.0,13,0.00,,,0.00,,2013-05-05 04:02:00,
2013-05-04 22:12:00,73.0,19.0,29.97,SSW,200,4.0,7.0,13,0.00,,,0.00,,2013-05-05 04:12:00,
2013-05-04 22:22:00,73.0,15.0,29.98,South,180,6.0,9.0,11,0.00,,,0.00,,2013-05-05 04:22:00,
2013-05-04 22:32:00,73.0,13.0,30.00,SW,217,8.0,10.0,10,0.00,,,0.00,,2013-05-05 04:32:00,
2013-05-04 22:43:00,73.0,13.0,30.00,SW,217,8.0,10.0,10,0.00,,,0.00,,2013-05-05 04:43:00,
2013-05-04 22:53:00,73.0,13.0,30.01,South,190,7.0,13.0,10,0.00,,,0.00,,2013-05-05 04:53:00,
2013-05-04 23:02:00,73.0,13.0,30.02,SW,235,8.0,16.0,10,0.00,,,0.00,,2013-05-05 05:02:00,
2013-05-04 23:12:00,73.0,13.0,30.02,SW,235,8.0,16.0,10,0.00,,,0.00,,2013-05-05 05:12:00,
2013-05-04 23:21:00,73.0,11.0,30.03,SSW,200,8.0,13.0,9,0.00,,,0.00,,2013-05-05 05:21:00,
2013-05-04 23:31:00,72.0,12.0,30.03,SW,214,10.0,15.0,10,0.00,,,0.00,,2013-05-05 05:31:00,
2013-05-04 23:42:00,72.0,12.0,30.03,SW,214,10.0,15.0,10,0.00,,,0.00,,2013-05-05 05:42:00,
2013-05-04 23:52:00,72.0,12.0,30.03,SSW,195,6.0,15.0,10,0.00,,,0.00,,2013-05-05 05:52:00,